When you browse on this site, cookies collect data to enhance your experience and personalize the content and advertising you see.
Visit our Privacy Policy to learn more. By continuing to use the site, you agree to this use of cookies and data.
  • In Hungary
  • List of Countries
  • For 7 days
  • Water Temperature
  • Weather Map
  • News
  • Weather Widgets
  • user-avatar
    Login

    Hourly Weather Zababe

    Today, 18 August, Sunday

    Time Temperature Precipitation Wind Pressure Humidity
    00:00 +12°C° 0 mm 3 mps 747 mmHg 93%
    01:00 +12°C° 0 mm 3 mps 747 mmHg 92%
    02:00 +12°C° 0 mm 3 mps 747 mmHg 91%
    03:00 +12°C° 0 mm 3 mps 746 mmHg 91%
    04:00 +12°C° 0 mm 3 mps 746 mmHg 92%
    05:00 +11°C° 0 mm 3 mps 746 mmHg 93%
    06:00 +13°C° 0 mm 4 mps 746 mmHg 88%
    07:00 +14°C° 0 mm 4 mps 746 mmHg 83%
    08:00 +15°C° 0 mm 4 mps 746 mmHg 76%
    09:00 +17°C° 0 mm 4 mps 746 mmHg 75%
    10:00 +18°C° 0 mm 4 mps 747 mmHg 75%
    11:00 +18°C° 0 mm 3 mps 747 mmHg 75%
    12:00 +19°C° 0 mm 4 mps 747 mmHg 72%
    13:00 +20°C° 0 mm 4 mps 747 mmHg 69%
    14:00 +21°C° 0 mm 4 mps 747 mmHg 67%
    15:00 +21°C° 0 mm 3 mps 747 mmHg 67%
    16:00 +21°C° 0 mm 3 mps 747 mmHg 67%
    17:00 +21°C° 0 mm 2 mps 748 mmHg 68%
    18:00 +20°C° 0 mm 2 mps 748 mmHg 72%
    19:00 +19°C° 0 mm 1 mps 748 mmHg 77%
    20:00 +16°C° 0 mm 1 mps 748 mmHg 81%
    21:00 +16°C° 0 mm 1 mps 749 mmHg 80%
    22:00 +15°C° 0 mm 1 mps 749 mmHg 79%
    23:00 +15°C° 0 mm 1 mps 749 mmHg 79%

    Tomorrow, 19 August, Monday

    Time Temperature Precipitation Wind Pressure Humidity
    00:00 +15°C° 0 mm 1 mps 749 mmHg 79%
    01:00 +14°C° 0 mm 1 mps 749 mmHg 80%
    02:00 +14°C° 0 mm 1 mps 750 mmHg 80%
    03:00 +14°C° 0 mm 1 mps 750 mmHg 82%
    04:00 +14°C° 0 mm 2 mps 750 mmHg 84%
    05:00 +14°C° 0 mm 2 mps 750 mmHg 85%
    06:00 +16°C° 0 mm 2 mps 750 mmHg 81%
    07:00 +17°C° 0 mm 2 mps 750 mmHg 76%
    08:00 +19°C° 0 mm 3 mps 751 mmHg 71%
    09:00 +21°C° 0 mm 3 mps 751 mmHg 67%
    10:00 +24°C° 0 mm 3 mps 751 mmHg 62%
    11:00 +26°C° 0 mm 3 mps 751 mmHg 58%
    12:00 +26°C° 0 mm 4 mps 751 mmHg 57%
    13:00 +27°C° 0 mm 4 mps 751 mmHg 55%
    14:00 +28°C° 0 mm 4 mps 751 mmHg 53%
    15:00 +28°C° 0 mm 3 mps 751 mmHg 57%
    16:00 +28°C° 0 mm 3 mps 751 mmHg 60%
    17:00 +28°C° 0 mm 2 mps 751 mmHg 64%
    18:00 +26°C° 0 mm 2 mps 751 mmHg 68%
    19:00 +24°C° 0 mm 3 mps 751 mmHg 72%
    20:00 +21°C° 0 mm 3 mps 751 mmHg 76%
    21:00 +21°C° 0 mm 3 mps 751 mmHg 78%
    22:00 +20°C° 0 mm 3 mps 752 mmHg 80%
    23:00 +19°C° 0 mm 3 mps 752 mmHg 82%

    Day after tomorrow, 20 August, Tuesday

    Time Temperature Precipitation Wind Pressure Humidity
    00:00 +19°C° 0 mm 3 mps 752 mmHg 83%
    01:00 +19°C° 0 mm 3 mps 752 mmHg 84%
    02:00 +18°C° 0 mm 2 mps 752 mmHg 85%
    03:00 +18°C° 0.1 mm 2 mps 753 mmHg 87%
    04:00 +18°C° 0.1 mm 2 mps 753 mmHg 88%
    05:00 +18°C° 0.1 mm 2 mps 753 mmHg 90%
    06:00 +19°C° 0 mm 2 mps 753 mmHg 85%
    07:00 +21°C° 0 mm 3 mps 753 mmHg 81%
    08:00 +22°C° 0 mm 3 mps 753 mmHg 77%
    09:00 +25°C° 0 mm 3 mps 753 mmHg 71%
    10:00 +26°C° 0 mm 3 mps 754 mmHg 66%
    11:00 +28°C° 0 mm 3 mps 754 mmHg 60%
    12:00 +29°C° 0 mm 3 mps 754 mmHg 57%
    13:00 +30°C° 0 mm 3 mps 754 mmHg 54%
    14:00 +30°C° 0 mm 2 mps 754 mmHg 52%
    15:00 +30°C° 0 mm 2 mps 754 mmHg 54%
    16:00 +30°C° 0 mm 1 mps 754 mmHg 56%
    17:00 +30°C° 0 mm 1 mps 754 mmHg 59%
    18:00 +28°C° 0 mm 1 mps 754 mmHg 63%
    19:00 +26°C° 0 mm 1 mps 754 mmHg 68%
    20:00 +24°C° 0 mm 1 mps 754 mmHg 73%
    21:00 +23°C° 0 mm 1 mps 754 mmHg 75%
    22:00 +22°C° 0 mm 1 mps 754 mmHg 76%
    23:00 +22°C° 0 mm 1 mps 754 mmHg 77%

    21 August, Wednesday

    Time Temperature Precipitation Wind Pressure Humidity
    00:00 +21°C° 0 mm 1 mps 754 mmHg 77%
    01:00 +20°C° 0 mm 2 mps 754 mmHg 77%
    02:00 +20°C° 0 mm 2 mps 754 mmHg 77%
    03:00 +19°C° 0 mm 2 mps 754 mmHg 77%
    04:00 +19°C° 0 mm 2 mps 754 mmHg 78%
    05:00 +19°C° 0 mm 2 mps 754 mmHg 78%
    06:00 +20°C° 0 mm 2 mps 754 mmHg 75%
    07:00 +21°C° 0 mm 2 mps 755 mmHg 72%
    08:00 +23°C° 0 mm 2 mps 755 mmHg 70%
    09:00 +25°C° 0 mm 2 mps 754 mmHg 65%
    10:00 +27°C° 0 mm 3 mps 754 mmHg 60%
    11:00 +28°C° 0 mm 3 mps 754 mmHg 55%
    12:00 +29°C° 0 mm 3 mps 754 mmHg 54%
    13:00 +29°C° 0 mm 3 mps 754 mmHg 52%
    14:00 +30°C° 0 mm 3 mps 753 mmHg 51%
    15:00 +29°C° 0 mm 3 mps 753 mmHg 54%
    16:00 +29°C° 0 mm 2 mps 753 mmHg 57%
    17:00 +29°C° 0 mm 2 mps 752 mmHg 60%
    18:00 +27°C° 0 mm 2 mps 752 mmHg 62%
    19:00 +25°C° 0 mm 2 mps 752 mmHg 65%
    20:00 +23°C° 0 mm 2 mps 752 mmHg 67%
    21:00 +23°C° 0 mm 2 mps 752 mmHg 67%
    22:00 +21°C° 0 mm 2 mps 752 mmHg 68%
    23:00 +21°C° 0 mm 2 mps 752 mmHg 69%

    22 August, Thursday

    Time Temperature Precipitation Wind Pressure Humidity
    00:00 +20°C° 0 mm 2 mps 752 mmHg 70%
    01:00 +20°C° 0 mm 2 mps 752 mmHg 71%
    02:00 +19°C° 0 mm 2 mps 752 mmHg 73%
    03:00 +19°C° 0 mm 2 mps 752 mmHg 75%
    04:00 +19°C° 0 mm 2 mps 752 mmHg 78%
    05:00 +19°C° 0 mm 1 mps 752 mmHg 80%
    06:00 +19°C° 0 mm 2 mps 752 mmHg 81%
    07:00 +20°C° 0 mm 2 mps 752 mmHg 81%
    08:00 +21°C° 0 mm 3 mps 753 mmHg 82%
    09:00 +21°C° 0 mm 3 mps 753 mmHg 82%
    10:00 +22°C° 0 mm 4 mps 753 mmHg 81%
    11:00 +22°C° 0 mm 4 mps 753 mmHg 81%
    12:00 +22°C° 0.1 mm 4 mps 753 mmHg 80%
    13:00 +22°C° 0.1 mm 4 mps 753 mmHg 79%
    14:00 +22°C° 0.1 mm 4 mps 753 mmHg 79%
    15:00 +21°C° 0 mm 4 mps 753 mmHg 78%
    16:00 +21°C° 0 mm 4 mps 753 mmHg 78%
    17:00 +21°C° 0 mm 4 mps 753 mmHg 78%
    18:00 +21°C° 0 mm 4 mps 753 mmHg 78%
    19:00 +20°C° 0 mm 4 mps 753 mmHg 78%
    20:00 +19°C° 0 mm 4 mps 754 mmHg 79%
    21:00 +19°C° 0 mm 4 mps 754 mmHg 81%
    22:00 +18°C° 0 mm 4 mps 754 mmHg 83%
    23:00 +17°C° 0 mm 3 mps 754 mmHg 85%

    23 August, Friday

    Time Temperature Precipitation Wind Pressure Humidity
    00:00 +17°C° 0 mm 3 mps 754 mmHg 86%
    01:00 +16°C° 0 mm 3 mps 754 mmHg 87%
    02:00 +16°C° 0 mm 3 mps 754 mmHg 88%
    03:00 +16°C° 0 mm 3 mps 754 mmHg 87%
    04:00 +16°C° 0 mm 3 mps 754 mmHg 87%
    05:00 +15°C° 0 mm 4 mps 754 mmHg 86%
    06:00 +15°C° 0.1 mm 4 mps 754 mmHg 85%
    07:00 +17°C° 0.1 mm 4 mps 754 mmHg 84%
    08:00 +17°C° 0.1 mm 4 mps 754 mmHg 83%
    09:00 +18°C° 0 mm 4 mps 754 mmHg 80%
    10:00 +19°C° 0 mm 4 mps 755 mmHg 76%
    11:00 +20°C° 0 mm 4 mps 755 mmHg 72%
    12:00 +21°C° 0 mm 4 mps 755 mmHg 69%
    13:00 +21°C° 0 mm 4 mps 755 mmHg 65%
    14:00 +22°C° 0 mm 4 mps 754 mmHg 62%
    15:00 +22°C° 0 mm 4 mps 754 mmHg 63%
    16:00 +21°C° 0 mm 4 mps 754 mmHg 64%
    17:00 +21°C° 0 mm 4 mps 754 mmHg 65%
    18:00 +19°C° 0 mm 4 mps 755 mmHg 71%
    19:00 +17°C° 0 mm 4 mps 755 mmHg 77%
    20:00 +16°C° 0 mm 3 mps 755 mmHg 82%
    21:00 +14°C° 0 mm 3 mps 755 mmHg 85%
    22:00 +13°C° 0 mm 3 mps 755 mmHg 87%
    23:00 +13°C° 0 mm 3 mps 756 mmHg 89%
    Show more